Dewpoint
0 -0 1 1 2 5 5 4 4 3 2 2 3 4 4 3 2 2 -0 -3 -1 1 1 -1 -5 -9 -11 -11 -9 -4 1 5 7 8 10 10 10 10 8 6 7 9 9
-2 -0 -0 0 2 5 5 4 3 4 4 4 4 4 4 5 4 3 2 -0 -3 2 0 -2 -4 -8 -10 -10 -9 -5 -1 3 4 7 10 10 10 10 9 8 7 8 9
-1 -1 -1 1 4 5 4 3 2 2 5 4 5 5 4 4 4 4 3 2 1 -1 -2 -2 -4 -4 -9 -9 -9 -8 -6 -0 4 5 7 10 10 10 10 9 9 8 9
5 4 3 1 -0 0 -0 -0 0 2 4 5 5 5 5 5 5 4 4 3 1 0 0 -2 -3 -3 -3 -8 -9 -9 -9 -9 -7 1 5 6 8 9 10 9 9 9 9
5 4 3 0 1 2 2 3 3 4 5 5 5 5 4 2 2 4 4 4 2 1 0 0 -0 -2 -2 -3 -6 -8 -8 -8 -8 -8 -9 -3 4 6 7 8 9 9 9
3 2 2 2 2 2 2 3 2 2 3 2 1 1 3 4 5 5 2 4 5 4 1 0 0 -0 -1 -2 -3 -6 -7 -8 -8 -8 -8 -9 -9 -6 2 6 7 7 9
3 3 3 3 3 2 1 -0 -1 -2 -3 -2 1 -1 2 2 2 1 3 1 1 4 4 2 0 0 0 -1 -2 -2 -4 -8 -8 -8 -8 -8 -9 -9 -9 -8 -1 6 7
4 4 3 2 1 -1 -2 -1 -2 -1 -4 -7 0 2 2 0 0 2 2 3 3 4 5 4 2 1 0 -0 -1 -1 -2 -4 -8 -7 -8 -8 -8 -9 -9 -9 -7 -6 4
2 1 -0 -1 -1 -2 -2 -2 -2 -5 -5 0 2 2 3 2 2 1 -0 0 1 2 3 3 4 3 2 2 -0 -0 -1 -2 -7 -7 -8 -7 -7 -8 -9 -10 -10 -9 -5
0 -1 -1 -1 -1 -2 -5 -6 -3 0 2 2 2 1 1 -0 -0 -0 -0 -0 0 1 2 3 3 4 4 3 3 2 -0 -1 -3 -4 -6 -7 -7 -8 -9 -9 -10 -10 -10
0 -0 0 -0 -4 -6 -2 -0 1 1 -1 -2 -3 -3 -3 -2 -4 -3 -2 -3 -4 -4 -3 -0 1 3 4 4 3 2 1 -1 -3 -4 -5 -6 -5 -7 -7 -5 -5 -6 -10
2 1 -1 -3 -3 -2 -1 0 -2 -2 -3 -2 -3 -3 -3 -4 -3 -2 -2 -4 -4 -4 -5 -4 -3 -2 -1 3 3 2 2 1 -2 -3 -3 -3 -5 -6 -5 -5 -5 -5 -6
0 -0 -4 -5 -4 -2 -4 -3 -3 -3 -3 -4 -5 -5 -3 -4 -3 -3 -3 -3 -4 -6 -6 -7 -5 -2 -1 1 1 1 1 0 -0 -3 -2 -2 -3 -4 -4 -5 -6 -8 -7
-1 -3 -2 -3 -4 -4 -3 -3 -3 -4 -5 -6 -6 -5 -2 -3 -3 -3 -3 -3 -4 -5 -7 -7 -8 -6 -4 -4 -0 0 -0 0 -0 -0 -2 -4 -4 -2 -4 -4 -5 -9 -11
-2 -2 -3 -4 -4 -5 -5 -4 -5 -6 -6 -6 -5 -6 -7 -6 -5 -4 -4 -4 -4 -4 -4 -7 -8 -8 -8 -7 -5 -2 -2 -2 -1 -1 -1 -2 -3 -3 -3 -4 -5 -11 -13
-2 -3 -3 -4 -3 -3 -4 -4 -4 -5 -5 -5 -6 -5 -5 -5 -5 -6 -6 -6 -5 -5 -4 -5 -9 -8 -8 -7 -8 -8 -3 -3 -3 -3 -3 -3 -5 -6 -8 -7 -7 -8 -11
-4 -3 -3 -3 -3 -3 -4 -5 -4 -5 -5 -5 -6 -5 -5 -7 -8 -9 -9 -9 -9 -8 -7 -7 -8 -8 -9 -9 -9 -7 -6 -6 -4 -4 -4 -7 -8 -9 -9 -10 -10 -10 -12
-5 -4 -3 -4 -5 -5 -6 -6 -8 -8 -8 -8 -8 -7 -8 -10 -13 -13 -10 -9 -9 -9 -8 -8 -8 -8 -9 -10 -10 -10 -10 -9 -8 -7 -6 -6 -7 -7 -7 -8 -8 -8 -9
-5 -5 -5 -5 -6 -7 -9 -9 -10 -9 -9 -9 -9 -9 -10 -11 -14 -15 -10 -10 -10 -9 -9 -8 -8 -8 -9 -10 -11 -12 -13 -13 -12 -11 -10 -10 -10 -9 -9 -9 -9 -9 -9
-5 -5 -6 -6 -9 -10 -10 -10 -10 -10 -10 -10 -10 -10 -10 -12 -13 -11 -9 -9 -8 -9 -9 -10 -12 -12 -12 -11 -10 -10 -10 -8 -8 -9 -9 -9 -10 -10 -10 -10 -10 -9 -9
-5 -6 -6 -8 -10 -10 -10 -9 -9 -9 -10 -10 -10 -10 -11 -12 -10 -8 -8 -8 -8 -7 -8 -9 -10 -10 -10 -12 -13 -11 -9 -8 -8 -8 -9 -8 -7 -7 -8 -8 -8 -8 -8
-6 -7 -8 -10 -10 -10 -10 -9 -10 -11 -10 -10 -11 -13 -14 -12 -10 -9 -8 -9 -9 -8 -8 -8 -8 -9 -11 -12 -11 -11 -11 -11 -11 -11 -12 -12 -12 -12 -10 -10 -10 -11 -11
-7 -9 -10 -10 -10 -10 -10 -10 -11 -12 -11 -11 -13 -14 -14 -13 -12 -12 -11 -12 -11 -11 -10 -10 -9 -11 -10 -10 -9 -9 -9 -10 -10 -11 -11 -11 -12 -12 -11 -10 -10 -10 -10
-8 -10 -10 -10 -10 -10 -9 -11 -11 -11 -11 -12 -12 -12 -13 -13 -12 -12 -12 -12 -12 -12 -11 -10 -10 -11 -10 -9 -8 -9 -9 -9 -9 -9 -9 -10 -10 -11 -12 -12 -12 -11 -11
-11 -10 -10 -10 -10 -9 -11 -11 -11 -11 -11 -11 -12 -12 -13 -13 -13 -11 -11 -11 -11 -11 -11 -10 -10 -10 -10 -11 -9 -9 -8 -9 -9 -10 -11 -10 -11 -12 -11 -11 -10 -11 -11
-10 -9 -9 -9 -9 -11 -12 -10 -11 -11 -11 -12 -12 -13 -14 -13 -12 -11 -11 -11 -11 -13 -12 -12 -12 -12 -12 -11 -11 -11 -10 -9 -9 -9 -11 -8 -9 -9 -8 -12 -11 -12 -11
Wind_Speed
5 4 4 5 5 4 7 10 14 17 17 16 17 20 22 23 23 21 20 20 22 24 26 25 23 22 22 21 18 18 19 20 21 21 22 22 22 22 22 23 24 27 24
5 5 6 7 7 7 11 15 19 19 20 21 21 20 21 22 24 24 23 22 25 24 25 24 23 22 22 22 21 20 20 20 21 21 22 23 22 21 22 24 27 27 26
8 11 8 8 8 11 16 19 22 22 21 23 24 24 24 25 27 30 28 27 24 26 28 29 25 22 23 24 23 22 21 22 22 22 23 22 22 23 24 26 27 27 29
13 12 12 14 16 19 23 25 25 25 25 25 27 27 27 27 29 31 33 33 30 29 27 26 27 26 24 25 26 25 24 23 23 24 24 25 26 25 25 26 28 30 31
16 18 19 17 19 22 21 22 23 23 26 27 30 32 34 34 32 31 31 30 33 34 31 29 28 28 28 27 28 28 26 26 24 24 24 25 26 26 28 27 25 27 32
15 19 20 21 24 27 25 26 27 26 28 31 33 34 32 31 32 32 32 33 35 37 38 36 32 31 32 33 29 28 29 28 27 25 24 23 23 24 26 28 30 29 28
15 19 22 22 23 23 24 25 27 29 28 26 30 32 31 30 31 31 28 30 31 35 39 43 41 38 36 35 35 32 31 31 29 27 25 23 22 21 22 23 25 27 30
13 15 16 16 18 20 22 24 27 29 32 27 26 30 28 33 30 26 24 24 27 24 28 36 44 45 42 39 39 35 36 35 33 30 27 24 22 21 21 21 21 21 23
15 17 18 19 19 22 24 26 29 32 31 28 25 22 19 21 29 31 32 31 30 30 28 29 29 35 41 45 41 39 37 35 34 33 28 26 22 21 20 21 21 20 21
23 22 19 20 23 26 30 30 26 22 24 25 23 21 23 27 19 28 25 28 31 31 28 24 23 27 27 37 43 42 38 38 36 34 32 30 25 21 20 19 18 19 21
21 23 26 32 31 29 25 22 21 22 24 28 29 30 32 32 31 30 35 32 39 37 35 34 26 22 26 28 31 30 30 36 36 33 32 31 28 25 21 20 19 19 20
25 28 32 30 26 24 25 25 28 25 26 23 25 24 28 27 23 16 22 31 34 35 31 27 28 28 28 23 17 35 37 28 30 30 30 29 30 25 24 23 22 23 22
30 33 34 31 28 28 28 22 22 25 23 25 26 28 21 17 14 14 14 19 24 32 28 19 15 17 16 17 28 25 28 21 23 25 26 30 30 28 27 26 25 26 27
32 32 26 27 29 23 20 21 22 21 24 22 21 15 16 14 16 16 16 18 23 23 23 23 16 20 20 18 18 20 22 30 33 25 18 23 26 29 27 27 28 29 28
22 25 29 30 27 22 17 15 14 15 15 16 15 13 14 14 16 19 18 18 18 24 28 27 25 20 19 17 18 13 10 10 21 22 26 16 22 25 27 29 29 29 29
27 29 26 21 22 22 19 17 16 17 19 18 18 17 17 18 18 20 21 22 24 24 28 26 27 25 19 16 17 21 18 14 9 11 9 10 19 22 22 21 25 27 27
25 22 21 21 23 21 19 18 18 19 19 19 18 15 19 17 19 20 20 20 21 21 27 29 25 22 22 19 17 15 18 22 15 12 12 17 22 24 24 25 24 24 26
21 20 21 17 17 17 18 18 17 19 19 20 19 21 21 25 31 29 25 25 26 26 26 28 26 23 24 24 22 19 16 13 19 21 18 18 18 20 20 22 23 24 25
18 16 16 16 18 21 22 22 22 23 23 21 23 26 31 32 32 29 28 28 29 28 29 30 32 30 27 24 29 29 28 28 25 22 20 23 28 31 29 28 29 29 29
19 18 20 20 20 22 22 22 21 21 25 27 30 31 32 32 28 24 25 26 27 29 32 34 33 32 34 32 28 25 24 18 16 18 20 20 24 24 23 27 30 28 27
15 18 20 21 23 23 22 22 26 30 32 34 35 34 33 27 20 19 23 23 23 24 25 26 29 30 30 29 29 28 27 26 27 24 26 24 24 23 22 20 23 25 27
18 16 18 20 23 24 26 28 31 35 36 36 35 34 31 28 23 22 23 23 21 22 23 24 26 27 30 28 25 24 26 28 33 36 34 35 32 36 36 34 32 32 32
16 14 19 21 22 24 26 31 35 32 28 28 29 27 27 24 23 24 26 27 26 24 24 25 23 24 25 23 24 23 20 21 24 23 26 31 29 31 29 28 27 27 26
15 18 17 20 21 25 29 32 27 26 29 28 28 26 27 26 23 24 25 25 25 25 24 23 24 26 24 23 24 22 24 25 28 30 29 38 32 32 27 28 28 27 28
15 15 16 21 26 28 31 26 26 27 27 29 27 26 31 26 23 21 24 22 20 21 20 21 23 23 25 27 23 23 23 29 30 31 25 28 29 33 32 29 22 22 24
14 15 19 22 26 30 24 23 26 28 30 26 28 34 28 24 20 21 21 24 29 29 26 25 26 27 27 24 23 25 26 26 26 26 19 20 20 22 26 32 28 24 18
Wind_Direction
254 270 291 321 331 318 307 294 295 305 317 323 305 302 298 299 307 311 299 280 274 278 278 282 282 274 272 269 261 253 249 245 243 241 240 238 236 235 233 229 224 226 223
248 287 314 309 320 300 291 291 306 310 309 310 308 305 301 297 295 300 298 296 279 277 276 280 282 277 270 267 264 258 252 248 244 243 240 239 238 235 234 231 227 224 230
284 290 285 282 279 278 284 293 302 308 299 298 296 295 293 290 290 290 289 288 289 286 281 277 276 277 269 265 264 262 257 253 251 245 244 243 239 237 234 231 228 228 228
279 276 286 310 312 316 313 310 307 306 297 296 292 290 289 288 288 289 288 284 278 277 282 280 275 275 271 263 262 260 260 257 252 250 247 245 244 239 238 241 230 226 230
270 289 305 309 308 308 299 297 297 292 291 288 287 285 285 287 282 281 285 286 283 278 272 266 272 270 268 264 261 260 259 260 257 253 251 248 246 245 242 241 242 234 231
280 289 293 287 298 306 293 289 292 288 288 291 293 291 287 288 288 286 282 280 282 280 279 271 263 262 263 265 260 255 255 255 255 253 250 247 246 245 245 243 239 239 241
297 294 290 296 304 301 303 303 298 299 301 301 301 298 295 292 292 294 292 289 284 278 275 274 270 260 258 256 259 257 255 254 250 249 249 246 244 244 244 246 246 241 240
283 289 301 302 301 302 302 303 306 308 306 306 303 299 306 300 300 291 286 283 285 300 285 275 270 269 261 253 251 258 256 252 250 248 245 245 247 248 247 247 245 245 241
301 299 295 289 292 296 300 303 302 300 302 298 295 299 310 305 307 294 285 287 284 289 288 283 276 269 261 263 253 252 250 251 245 243 244 246 245 246 247 248 248 243 239
294 295 290 295 302 302 303 306 306 297 296 301 307 304 300 314 321 312 297 287 284 280 281 290 286 260 253 249 254 252 244 241 238 240 246 245 242 238 236 241 247 251 248
290 294 299 305 309 315 314 310 304 306 306 304 309 306 303 294 302 302 307 302 295 289 282 284 291 292 273 268 234 243 242 241 235 234 235 240 247 244 240 237 242 250 253
307 308 315 319 321 315 308 305 306 305 304 305 303 307 306 311 307 302 303 305 308 309 305 301 295 290 285 274 253 242 224 224 238 236 236 240 238 240 245 253 256 254 253
309 314 319 322 318 311 305 307 305 303 305 310 310 306 307 305 314 303 307 307 309 313 317 323 325 314 292 277 268 258 219 213 230 232 236 239 241 246 252 255 259 261 258
308 312 312 313 312 316 309 306 307 314 311 306 306 313 301 305 300 287 297 299 304 307 320 332 325 311 321 322 263 245 239 231 231 225 235 236 238 239 248 255 262 263 264
306 305 311 318 322 328 325 328 328 329 330 330 327 322 323 320 323 321 309 315 308 298 302 313 318 323 327 327 314 285 234 247 234 223 217 233 259 249 256 265 262 258 260
308 311 315 316 315 318 317 314 322 322 319 319 318 312 313 317 311 312 307 302 293 293 288 298 310 313 322 316 310 315 286 286 307 289 276 269 272 274 272 267 266 261 262
314 312 311 304 308 313 316 314 310 312 310 306 300 292 293 299 303 302 300 296 290 295 294 304 308 309 308 307 315 307 298 297 269 283 259 266 274 279 279 275 270 267 263
314 302 304 316 319 320 322 321 316 306 302 298 290 290 290 303 308 293 292 296 291 286 287 295 298 299 292 287 287 286 275 291 290 286 279 270 269 268 269 266 265 269 273
327 325 323 324 322 317 315 310 309 303 297 299 301 301 304 309 305 295 289 290 290 290 286 287 290 290 291 290 287 289 287 283 271 269 266 260 265 262 263 267 270 276 277
316 316 317 321 314 313 311 310 308 306 306 307 307 308 309 310 305 291 294 291 288 286 283 284 287 291 290 289 284 284 285 274 261 255 254 251 254 261 264 263 264 259 261
305 305 306 312 311 307 308 305 304 306 309 310 310 310 311 307 292 291 296 290 286 281 282 282 283 290 295 298 289 273 277 280 271 270 262 253 250 246 256 260 260 261 260
296 301 309 308 309 310 309 309 311 311 309 310 315 316 311 304 297 286 290 296 293 292 285 280 281 289 294 295 295 291 283 282 286 274 280 277 272 265 264 267 270 269 268
297 310 315 312 312 309 311 316 317 316 318 320 323 325 325 317 308 302 294 289 289 289 288 289 286 289 291 291 292 288 285 276 277 280 278 277 270 273 269 267 265 265 266
306 319 311 310 308 311 313 318 321 319 317 320 321 319 322 318 313 311 305 298 293 287 284 283 282 286 286 288 287 284 285 283 280 277 275 278 274 273 271 271 266 265 266
322 309 313 311 313 318 322 323 322 319 320 318 315 314 319 312 312 308 308 305 303 301 297 286 280 273 278 284 277 275 274 282 280 282 283 281 278 270 264 271 261 261 263
303 309 313 312 318 325 326 328 322 319 319 317 317 321 320 315 309 309 307 311 305 303 297 286 278 275 278 275 268 268 273 269 269 278 292 281 288 273 268 260 265 278 268
Height
1566 1566 1565 1565 1564 1564 1563 1562 1561 1560 1557 1555 1553 1551 1549 1547 1546 1545 1544 1542 1541 1541 1540 1539 1539 1537 1537 1536 1535 1535 1536 1537 1537 1537 1539 1541 1542 1543 1546 1548 1551 1555 1555
1564 1563 1562 1562 1561 1561 1561 1559 1558 1555 1553 1551 1549 1547 1546 1543 1542 1541 1540 1539 1537 1536 1536 1536 1535 1534 1533 1532 1532 1532 1532 1532 1533 1533 1534 1536 1538 1539 1541 1544 1548 1549 1550
1561 1560 1559 1558 1557 1557 1555 1554 1553 1551 1549 1547 1544 1543 1542 1540 1538 1536 1535 1534 1533 1532 1531 1531 1531 1530 1530 1529 1529 1529 1529 1529 1529 1529 1529 1531 1532 1534 1537 1540 1542 1544 1547
1558 1557 1556 1557 1556 1555 1553 1550 1547 1546 1544 1542 1539 1537 1536 1535 1533 1531 1529 1528 1526 1526 1526 1526 1525 1525 1525 1525 1525 1525 1525 1525 1525 1526 1526 1526 1527 1530 1532 1534 1536 1538 1541
1555 1555 1554 1553 1551 1550 1548 1545 1542 1540 1538 1535 1532 1530 1528 1527 1526 1525 1524 1523 1521 1518 1518 1518 1519 1519 1519 1519 1520 1521 1521 1521 1522 1521 1522 1522 1522 1524 1527 1528 1531 1533 1534
1553 1551 1550 1548 1546 1544 1542 1539 1536 1534 1532 1530 1526 1522 1520 1519 1519 1518 1517 1516 1516 1514 1511 1510 1511 1511 1512 1513 1514 1515 1516 1516 1516 1517 1517 1518 1519 1520 1521 1523 1526 1527 1529
1548 1547 1545 1542 1540 1538 1536 1534 1531 1528 1527 1525 1519 1515 1512 1512 1511 1510 1510 1510 1509 1508 1507 1504 1502 1502 1503 1505 1507 1509 1510 1511 1511 1511 1512 1513 1514 1515 1517 1518 1520 1521 1523
1545 1542 1539 1537 1535 1533 1532 1530 1528 1524 1522 1521 1517 1511 1504 1503 1504 1503 1503 1503 1502 1501 1499 1499 1497 1494 1495 1497 1498 1502 1503 1505 1506 1506 1507 1508 1508 1510 1511 1512 1514 1516 1518
1540 1537 1534 1533 1531 1529 1527 1525 1523 1519 1515 1514 1515 1512 1505 1501 1496 1497 1496 1497 1496 1493 1492 1491 1489 1489 1488 1490 1491 1493 1495 1497 1498 1500 1501 1503 1504 1504 1505 1507 1509 1511 1513
1536 1533 1531 1529 1527 1524 1522 1519 1516 1514 1512 1510 1510 1510 1508 1504 1498 1487 1489 1489 1489 1486 1484 1483 1482 1482 1479 1479 1480 1485 1488 1490 1490 1492 1494 1496 1497 1498 1500 1501 1503 1505 1507
1533 1530 1528 1526 1524 1520 1517 1514 1511 1509 1508 1506 1504 1501 1500 1499 1497 1491 1479 1479 1479 1480 1480 1477 1475 1473 1472 1470 1469 1474 1478 1481 1484 1485 1485 1489 1491 1492 1493 1495 1497 1499 1501
1528 1525 1523 1520 1517 1515 1512 1509 1506 1504 1502 1500 1498 1497 1494 1491 1488 1488 1483 1476 1473 1470 1471 1471 1469 1467 1467 1466 1463 1462 1467 1473 1479 1480 1479 1482 1484 1486 1487 1489 1490 1492 1494
1522 1520 1518 1515 1512 1510 1507 1505 1502 1500 1498 1495 1491 1490 1489 1487 1484 1483 1481 1477 1472 1467 1466 1467 1465 1462 1461 1461 1460 1461 1461 1462 1469 1472 1473 1477 1479 1479 1480 1482 1484 1485 1487
1518 1516 1513 1511 1508 1504 1501 1499 1498 1494 1493 1491 1487 1485 1484 1483 1482 1480 1478 1475 1470 1467 1465 1464 1463 1460 1458 1456 1455 1453 1456 1456 1458 1460 1466 1470 1473 1472 1475 1476 1479 1480 1481
1515 1512 1508 1504 1503 1500 1497 1495 1493 1492 1489 1487 1485 1483 1481 1480 1478 1476 1474 1473 1471 1467 1461 1460 1460 1459 1457 1454 1453 1450 1448 1451 1454 1451 1456 1461 1466 1466 1468 1471 1473 1474 1476
1511 1507 1505 1502 1501 1499 1496 1493 1490 1488 1486 1484 1481 1479 1478 1476 1474 1473 1471 1469 1467 1465 1458 1457 1456 1454 1454 1452 1452 1449 1447 1448 1447 1451 1451 1453 1458 1461 1460 1463 1467 1467 1468
1508 1505 1503 1499 1498 1496 1493 1490 1487 1485 1483 1480 1478 1475 1473 1471 1469 1468 1467 1466 1463 1461 1455 1451 1451 1450 1449 1449 1449 1448 1446 1445 1444 1445 1448 1451 1454 1454 1453 1457 1459 1459 1461
1505 1501 1499 1497 1495 1492 1489 1487 1484 1481 1479 1476 1473 1471 1468 1466 1464 1462 1461 1459 1457 1454 1451 1446 1444 1445 1445 1444 1443 1443 1443 1441 1442 1444 1444 1446 1449 1450 1448 1452 1452 1453 1455
1502 1499 1496 1494 1491 1489 1486 1483 1480 1477 1474 1471 1468 1465 1462 1460 1457 1455 1454 1451 1449 1447 1445 1442 1438 1438 1437 1437 1435 1435 1435 1436 1438 1437 1438 1440 1443 1443 1443 1444 1446 1445 1448
1497 1496 1494 1491 1487 1484 1481 1478 1475 1472 1469 1465 1462 1458 1455 1453 1450 1448 1446 1443 1441 1439 1437 1436 1433 1431 1431 1431 1431 1429 1427 1428 1428 1430 1432 1434 1434 1433 1434 1437 1436 1438 1440
1491 1490 1489 1486 1483 1479 1476 1474 1471 1466 1462 1457 1454 1451 1448 1445 1443 1442 1438 1435 1433 1431 1430 1429 1427 1426 1425 1423 1423 1423 1421 1420 1420 1422 1422 1423 1426 1426 1427 1428 1429 1431 1433
1486 1482 1482 1481 1478 1475 1472 1469 1465 1460 1456 1451 1446 1443 1439 1437 1435 1433 1431 1429 1428 1425 1423 1422 1421 1420 1419 1417 1416 1416 1414 1414 1412 1413 1415 1415 1417 1417 1419 1421 1423 1424 1426
1482 1478 1477 1475 1474 1471 1468 1463 1458 1453 1449 1445 1442 1437 1433 1430 1427 1425 1423 1421 1419 1418 1417 1416 1414 1414 1413 1413 1412 1410 1410 1409 1408 1409 1408 1404 1408 1408 1411 1413 1415 1416 1417
1477 1476 1472 1471 1470 1467 1463 1458 1452 1448 1444 1441 1437 1433 1429 1425 1422 1419 1416 1413 1411 1411 1410 1409 1408 1406 1407 1406 1406 1405 1405 1404 1403 1403 1404 1399 1401 1399 1401 1403 1405 1407 1408
1473 1471 1468 1467 1464 1461 1456 1452 1447 1443 1439 1435 1431 1428 1424 1419 1416 1413 1410 1407 1404 1403 1402 1402 1401 1400 1400 1400 1399 1399 1398 1398 1395 1394 1395 1392 1391 1391 1394 1394 1396 1397 1399
1468 1466 1464 1463 1459 1455 1451 1448 1443 1438 1433 1429 1425 1421 1417 1414 1410 1408 1404 1402 1398 1396 1394 1393 1392 1392 1391 1390 1391 1392 1390 1389 1389 1388 1387 1386 1384 1385 1384 1385 1388 1390 1391